N943BC EINN-EDFH

Flight info

Callsign N943BC
Flight time 1h 32m
Altitude 41000
Route ABAGU3A ABAGU DCT ENJEX DCT AVZAC DCT ICOSA DCT RUHUN DCT UNZIB DCT NUCHU L607 KONAN UL607 SPI Q50 ARCKY L607 ROPUV ROPUV4A
Aircraft B772/H-SDE2E3FGHIJ5LORVWXY/LB1D1

Departure

Time 2026-05-04 13:09
Airport Shannon Airport (EINN)

Arrival

Time 2026-05-04 14:41
Airport Frankfurt-Hahn Airport (EDFH)
Time Latitude Longitude Altitude Speed Heading
2026-05-04 12:53 52.69402 -8.92525 26 ft 0 kts 185°
2026-05-04 13:02 52.69405 -8.92524 27 ft 3 kts 185°
2026-05-04 13:02 52.69432 -8.92520 27 ft 4 kts 192°
2026-05-04 13:03 52.69454 -8.92507 24 ft 2 kts 217°
2026-05-04 13:03 52.69471 -8.92484 25 ft 4 kts 231°
2026-05-04 13:03 52.69480 -8.92453 25 ft 2 kts 266°
2026-05-04 13:03 52.69481 -8.92413 26 ft 4 kts 271°
2026-05-04 13:04 52.69481 -8.92376 27 ft 4 kts 268°
2026-05-04 13:04 52.69485 -8.92338 25 ft 4 kts 236°
2026-05-04 13:04 52.69498 -8.92313 25 ft 4 kts 230°
2026-05-04 13:04 52.69510 -8.92279 26 ft 4 kts 260°
2026-05-04 13:05 52.69509 -8.92240 24 ft 4 kts 289°
2026-05-04 13:05 52.69504 -8.92218 25 ft 3 kts 295°
2026-05-04 13:07 52.69505 -8.92223 24 ft 4 kts 295°
2026-05-04 13:07 52.69537 -8.92322 27 ft 15 kts 302°
2026-05-04 13:07 52.69626 -8.92486 27 ft 21 kts 315°
2026-05-04 13:08 52.69730 -8.92654 27 ft 21 kts 316°
2026-05-04 13:08 52.69835 -8.92823 29 ft 21 kts 314°
2026-05-04 13:08 52.69937 -8.92975 43 ft 17 kts 337°
2026-05-04 13:08 52.69982 -8.92947 42 ft 0 kts 53°
2026-05-04 13:09 52.70015 -8.92876 41 ft 36 kts 50°
2026-05-04 13:09 52.70413 -8.92044 37 ft 146 kts 52°
2026-05-04 13:09 52.71164 -8.90401 594 ft 196 kts 50°
2026-05-04 13:09 52.71973 -8.88584 2079 ft 203 kts 52°
2026-05-04 13:10 52.72807 -8.86545 3381 ft 217 kts 58°
2026-05-04 13:10 52.73141 -8.84043 4323 ft 236 kts 95°
2026-05-04 13:10 52.72512 -8.81422 4765 ft 259 kts 120°
2026-05-04 13:10 52.71558 -8.78869 5632 ft 264 kts 119°
2026-05-04 13:11 52.70669 -8.76173 6691 ft 266 kts 115°
2026-05-04 13:11 52.69879 -8.73395 7648 ft 269 kts 112°
2026-05-04 13:11 52.69158 -8.70510 8511 ft 277 kts 110°
2026-05-04 13:11 52.68481 -8.67499 8998 ft 281 kts 108°
2026-05-04 13:12 52.67844 -8.64421 8996 ft 285 kts 107°
2026-05-04 13:12 52.67242 -8.61322 8988 ft 282 kts 106°
2026-05-04 13:12 52.66669 -8.58234 9222 ft 284 kts 105°
2026-05-04 13:12 52.66106 -8.55105 10263 ft 284 kts 105°
2026-05-04 13:13 52.65543 -8.51921 10949 ft 300 kts 104°
2026-05-04 13:13 52.64939 -8.48449 11268 ft 328 kts 105°
2026-05-04 13:13 52.64310 -8.44816 12095 ft 339 kts 104°
2026-05-04 13:13 52.63661 -8.41060 13136 ft 345 kts 104°
2026-05-04 13:14 52.63000 -8.37229 14249 ft 349 kts 104°
2026-05-04 13:14 52.62332 -8.33351 15208 ft 355 kts 104°
2026-05-04 13:14 52.61656 -8.29426 16243 ft 358 kts 104°
2026-05-04 13:14 52.60970 -8.25454 17245 ft 363 kts 104°
2026-05-04 13:15 52.60274 -8.21428 18226 ft 368 kts 104°
2026-05-04 13:15 52.59567 -8.17347 19106 ft 373 kts 104°
2026-05-04 13:15 52.58852 -8.13232 20058 ft 375 kts 103°
2026-05-04 13:15 52.58128 -8.09072 20987 ft 379 kts 103°
2026-05-04 13:16 52.57400 -8.04898 21892 ft 383 kts 103°
2026-05-04 13:16 52.56662 -8.00676 22803 ft 387 kts 103°
2026-05-04 13:16 52.55913 -7.96402 23689 ft 391 kts 103°
2026-05-04 13:16 52.55154 -7.92086 24453 ft 395 kts 102°
2026-05-04 13:17 52.54393 -7.87761 25237 ft 397 kts 102°
2026-05-04 13:17 52.53615 -7.83360 26026 ft 400 kts 102°
2026-05-04 13:17 52.52836 -7.78959 26782 ft 402 kts 102°
2026-05-04 13:17 52.52054 -7.74540 27478 ft 406 kts 102°
2026-05-04 13:18 52.51258 -7.70065 28153 ft 409 kts 102°
2026-05-04 13:18 52.50455 -7.65565 28818 ft 412 kts 102°
2026-05-04 13:18 52.49513 -7.61084 29416 ft 419 kts 107°
2026-05-04 13:18 52.48364 -7.56666 30056 ft 423 kts 109°
2026-05-04 13:19 52.47130 -7.52266 30557 ft 426 kts 110°
2026-05-04 13:19 52.46291 -7.49327 30904 ft 427 kts 110°
2026-05-04 13:19 52.44624 -7.43461 31572 ft 430 kts 110°
2026-05-04 13:19 52.43374 -7.38995 32009 ft 432 kts 110°
2026-05-04 13:20 52.42131 -7.34502 32442 ft 434 kts 110°
2026-05-04 13:20 52.40891 -7.29986 32867 ft 436 kts 110°
2026-05-04 13:20 52.39651 -7.25456 33267 ft 438 kts 110°
2026-05-04 13:20 52.38405 -7.20904 33635 ft 440 kts 110°
2026-05-04 13:21 52.37150 -7.16322 33992 ft 441 kts 110°
2026-05-04 13:21 52.35894 -7.11746 34361 ft 441 kts 110°
2026-05-04 13:21 52.34628 -7.07146 34628 ft 444 kts 110°
2026-05-04 13:21 52.33354 -7.02524 34881 ft 447 kts 110°
2026-05-04 13:22 52.32505 -6.99452 35074 ft 448 kts 110°
2026-05-04 13:22 52.31217 -6.94797 35369 ft 450 kts 111°
2026-05-04 13:22 52.29918 -6.90115 35641 ft 452 kts 111°
2026-05-04 13:22 52.28616 -6.85427 35914 ft 455 kts 111°
2026-05-04 13:23 52.27307 -6.80729 36193 ft 457 kts 111°
2026-05-04 13:23 52.25988 -6.76001 36480 ft 458 kts 112°
2026-05-04 13:23 52.24664 -6.71267 36741 ft 461 kts 112°
2026-05-04 13:23 52.23324 -6.66484 37012 ft 463 kts 112°
2026-05-04 13:24 52.21981 -6.61699 37294 ft 464 kts 112°
2026-05-04 13:24 52.20635 -6.56915 37570 ft 466 kts 113°
2026-05-04 13:24 52.19280 -6.52107 37858 ft 467 kts 113°
2026-05-04 13:25 52.16559 -6.42483 38429 ft 470 kts 113°
2026-05-04 13:25 52.15185 -6.37635 38751 ft 470 kts 114°
2026-05-04 13:25 52.13809 -6.32797 38973 ft 471 kts 114°
2026-05-04 13:25 52.12433 -6.27962 39191 ft 471 kts 114°
2026-05-04 13:26 52.11052 -6.23123 39509 ft 470 kts 114°
2026-05-04 13:26 52.09673 -6.18298 39744 ft 471 kts 114°
2026-05-04 13:26 52.08290 -6.13465 39916 ft 472 kts 114°
2026-05-04 13:26 52.06917 -6.08679 40084 ft 474 kts 114°
2026-05-04 13:27 52.05500 -6.03753 40310 ft 474 kts 114°
2026-05-04 13:27 52.04136 -5.98965 40566 ft 474 kts 114°
2026-05-04 13:27 52.02764 -5.94088 40819 ft 474 kts 114°
2026-05-04 13:27 52.01400 -5.89224 40975 ft 476 kts 114°
2026-05-04 13:28 51.98636 -5.79390 41052 ft 480 kts 114°
2026-05-04 13:28 51.95849 -5.69546 41048 ft 478 kts 114°
2026-05-04 13:29 51.93068 -5.59776 41061 ft 476 kts 114°
2026-05-04 13:29 51.90295 -5.50078 41045 ft 475 kts 115°
2026-05-04 13:30 51.87510 -5.40377 41043 ft 475 kts 115°
2026-05-04 13:30 51.84712 -5.30669 41051 ft 475 kts 115°
2026-05-04 13:31 51.81929 -5.21043 41052 ft 476 kts 115°
2026-05-04 13:31 51.79110 -5.11305 41037 ft 477 kts 113°
2026-05-04 13:32 51.76997 -5.01205 41032 ft 477 kts 102°
2026-05-04 13:32 51.75742 -4.90688 41044 ft 477 kts 101°
2026-05-04 13:33 51.74544 -4.80164 41038 ft 477 kts 101°
2026-05-04 13:33 51.73301 -4.69624 41028 ft 477 kts 101°
2026-05-04 13:34 51.72029 -4.59120 41028 ft 477 kts 101°
2026-05-04 13:34 51.70744 -4.48626 41033 ft 477 kts 101°
2026-05-04 13:35 51.68800 -4.32879 41035 ft 478 kts 102°
2026-05-04 13:36 51.67491 -4.22373 41031 ft 478 kts 102°
2026-05-04 13:36 51.66172 -4.11863 41018 ft 479 kts 102°
2026-05-04 13:37 51.64852 -4.01422 41020 ft 479 kts 102°
2026-05-04 13:37 51.63515 -3.90918 41015 ft 479 kts 102°
2026-05-04 13:38 51.62158 -3.80416 41019 ft 479 kts 102°
2026-05-04 13:38 51.60777 -3.69918 41013 ft 480 kts 102°
2026-05-04 13:39 51.59423 -3.59412 41026 ft 480 kts 100°
2026-05-04 13:39 51.58694 -3.48734 41018 ft 481 kts 96°
2026-05-04 13:40 51.58123 -3.37995 41013 ft 481 kts 96°
2026-05-04 13:40 51.57529 -3.27338 41024 ft 482 kts 96°
2026-05-04 13:41 51.56896 -3.16618 41020 ft 482 kts 96°
2026-05-04 13:41 51.56242 -3.05896 41034 ft 482 kts 96°
2026-05-04 13:42 51.55246 -2.89835 41040 ft 482 kts 96°
2026-05-04 13:42 51.54577 -2.79227 41020 ft 482 kts 97°
2026-05-04 13:43 51.53887 -2.68430 41022 ft 482 kts 97°
2026-05-04 13:43 51.53194 -2.57749 41024 ft 482 kts 97°
2026-05-04 13:44 51.52489 -2.47031 41022 ft 482 kts 97°
2026-05-04 13:44 51.51775 -2.36331 41016 ft 483 kts 97°
2026-05-04 13:45 51.51050 -2.25608 41025 ft 483 kts 97°
2026-05-04 13:45 51.50314 -2.14881 41022 ft 483 kts 97°
2026-05-04 13:46 51.49571 -2.04180 41021 ft 483 kts 97°
2026-05-04 13:46 51.48814 -1.93508 41022 ft 483 kts 97°
2026-05-04 13:47 51.48023 -1.82785 41027 ft 484 kts 97°
2026-05-04 13:47 51.47228 -1.72080 41026 ft 484 kts 97°
2026-05-04 13:48 51.46118 -1.61450 41024 ft 483 kts 103°
2026-05-04 13:48 51.44621 -1.50962 41014 ft 483 kts 103°
2026-05-04 13:49 51.43164 -1.40444 41022 ft 483 kts 103°
2026-05-04 13:49 51.41707 -1.29940 41015 ft 483 kts 103°
2026-05-04 13:50 51.40238 -1.19433 41016 ft 483 kts 103°
2026-05-04 13:50 51.39195 -1.08822 41017 ft 484 kts 96°
2026-05-04 13:51 51.38681 -0.98066 41018 ft 484 kts 95°
2026-05-04 13:51 51.38178 -0.87341 41019 ft 484 kts 95°
2026-05-04 13:52 51.37342 -0.71194 41024 ft 484 kts 96°
2026-05-04 13:53 51.36760 -0.60454 41018 ft 484 kts 96°
2026-05-04 13:53 51.36169 -0.49727 41019 ft 484 kts 96°
2026-05-04 13:54 51.35270 -0.33697 41020 ft 484 kts 96°
2026-05-04 13:55 51.34344 -0.17586 41018 ft 485 kts 96°
2026-05-04 13:55 51.33394 -0.01411 41020 ft 485 kts 97°
2026-05-04 13:56 51.32703 0.08976 41021 ft 485 kts 99°
2026-05-04 13:57 51.31137 0.24954 41021 ft 484 kts 101°
2026-05-04 13:58 51.29036 0.46222 40996 ft 485 kts 100°
2026-05-04 13:58 51.27483 0.62192 40992 ft 485 kts 100°
2026-05-04 13:59 51.26437 0.72813 40996 ft 485 kts 100°
2026-05-04 14:00 51.24846 0.88746 41007 ft 484 kts 101°
2026-05-04 14:00 51.23231 1.04675 41013 ft 484 kts 101°
2026-05-04 14:01 51.22121 1.15263 41007 ft 484 kts 102°
2026-05-04 14:02 51.20303 1.31117 41010 ft 484 kts 102°
2026-05-04 14:02 51.19079 1.41680 40993 ft 484 kts 102°
2026-05-04 14:03 51.17857 1.52243 41004 ft 485 kts 102°
2026-05-04 14:03 51.16629 1.62800 41004 ft 485 kts 102°
2026-05-04 14:04 51.14773 1.78590 41004 ft 485 kts 102°
2026-05-04 14:04 51.13519 1.89149 40985 ft 486 kts 102°
2026-05-04 14:05 51.11615 2.05014 40994 ft 486 kts 103°
2026-05-04 14:06 51.10542 2.13873 40996 ft 487 kts 103°
2026-05-04 14:06 51.09258 2.24396 40998 ft 487 kts 103°
2026-05-04 14:07 51.07958 2.34964 40997 ft 487 kts 103°
2026-05-04 14:07 51.06651 2.45508 40999 ft 487 kts 103°
2026-05-04 14:08 51.05330 2.56084 40996 ft 487 kts 103°
2026-05-04 14:08 51.04002 2.66628 40997 ft 487 kts 103°
2026-05-04 14:09 51.01990 2.82451 40993 ft 487 kts 103°
2026-05-04 14:10 50.99959 2.98249 40987 ft 487 kts 103°
2026-05-04 14:10 50.98594 3.08765 40986 ft 487 kts 103°
2026-05-04 14:11 50.97216 3.19309 40981 ft 487 kts 103°
2026-05-04 14:11 50.95145 3.34996 40973 ft 487 kts 104°
2026-05-04 14:12 50.93748 3.45492 40969 ft 486 kts 104°
2026-05-04 14:13 50.91635 3.61226 40966 ft 486 kts 104°
2026-05-04 14:13 50.89868 3.71539 40970 ft 484 kts 109°
2026-05-04 14:14 50.87851 3.81741 40968 ft 485 kts 110°
2026-05-04 14:14 50.84831 3.97026 40977 ft 485 kts 109°
2026-05-04 14:15 50.80824 4.17420 40987 ft 485 kts 110°
2026-05-04 14:16 50.77794 4.32696 40989 ft 485 kts 110°
2026-05-04 14:17 50.74750 4.47924 40992 ft 486 kts 110°
2026-05-04 14:18 50.71679 4.63213 40988 ft 487 kts 110°
2026-05-04 14:19 50.67717 4.83665 40978 ft 488 kts 109°
2026-05-04 14:19 50.65706 4.93892 40969 ft 488 kts 110°
2026-05-04 14:19 50.64674 4.98988 40664 ft 491 kts 110°
2026-05-04 14:20 50.63620 5.04120 40180 ft 489 kts 111°
2026-05-04 14:20 50.62570 5.09204 39662 ft 486 kts 111°
2026-05-04 14:20 50.61529 5.14240 39208 ft 483 kts 111°
2026-05-04 14:21 50.59450 5.24300 38057 ft 482 kts 111°
2026-05-04 14:21 50.58417 5.29291 37381 ft 481 kts 112°
2026-05-04 14:21 50.57379 5.34296 36726 ft 479 kts 112°
2026-05-04 14:21 50.56334 5.39259 36098 ft 476 kts 113°
2026-05-04 14:22 50.55292 5.44186 35493 ft 475 kts 110°
2026-05-04 14:22 50.54518 5.49245 35011 ft 481 kts 107°
2026-05-04 14:22 50.53826 5.54356 34836 ft 481 kts 107°
2026-05-04 14:22 50.53148 5.59503 34369 ft 475 kts 107°
2026-05-04 14:23 50.51825 5.69433 33645 ft 459 kts 107°
2026-05-04 14:23 50.51146 5.74387 33188 ft 453 kts 107°
2026-05-04 14:23 50.50487 5.79125 32678 ft 449 kts 108°
2026-05-04 14:24 50.49814 5.83902 32130 ft 446 kts 108°
2026-05-04 14:24 50.49142 5.88647 31635 ft 442 kts 108°
2026-05-04 14:24 50.48475 5.93336 31144 ft 439 kts 107°
2026-05-04 14:24 50.47812 5.97995 30671 ft 435 kts 107°
2026-05-04 14:25 50.47154 6.02601 30214 ft 431 kts 107°
2026-05-04 14:25 50.45847 6.11718 29153 ft 425 kts 107°
2026-05-04 14:25 50.45198 6.16230 28636 ft 421 kts 107°
2026-05-04 14:26 50.44557 6.20673 28121 ft 418 kts 107°
2026-05-04 14:26 50.43917 6.25096 27628 ft 415 kts 107°
2026-05-04 14:26 50.43278 6.29493 27154 ft 412 kts 107°
2026-05-04 14:26 50.42641 6.33871 26680 ft 409 kts 107°
2026-05-04 14:27 50.42009 6.38208 26204 ft 406 kts 107°
2026-05-04 14:27 50.41381 6.42492 25748 ft 404 kts 107°
2026-05-04 14:27 50.40754 6.46762 25320 ft 401 kts 107°
2026-05-04 14:27 50.40128 6.51020 24898 ft 398 kts 107°
2026-05-04 14:28 50.39507 6.55224 24483 ft 396 kts 107°
2026-05-04 14:28 50.38884 6.59436 24069 ft 394 kts 107°
2026-05-04 14:28 50.38266 6.63598 23670 ft 392 kts 107°
2026-05-04 14:28 50.37652 6.67731 23221 ft 389 kts 107°
2026-05-04 14:29 50.36378 6.75927 22263 ft 385 kts 108°
2026-05-04 14:29 50.35054 6.84105 20696 ft 393 kts 108°
2026-05-04 14:30 50.34373 6.88220 19846 ft 389 kts 108°
2026-05-04 14:30 50.33707 6.92234 18937 ft 379 kts 108°
2026-05-04 14:30 50.32399 7.00053 16985 ft 359 kts 108°
2026-05-04 14:31 50.31776 7.03725 16017 ft 352 kts 108°
2026-05-04 14:31 50.30530 7.10999 14064 ft 343 kts 108°
2026-05-04 14:32 50.29301 7.18112 12380 ft 325 kts 108°
2026-05-04 14:32 50.28740 7.21424 12143 ft 306 kts 108°
2026-05-04 14:32 50.28217 7.24568 11938 ft 295 kts 108°
2026-05-04 14:32 50.27703 7.27675 11741 ft 297 kts 108°
2026-05-04 14:33 50.27178 7.30834 11445 ft 300 kts 108°
2026-05-04 14:33 50.26654 7.33987 10769 ft 299 kts 108°
2026-05-04 14:33 50.26132 7.37116 9986 ft 297 kts 111°
2026-05-04 14:33 50.25150 7.39829 9066 ft 285 kts 140°
2026-05-04 14:34 50.23478 7.41353 8085 ft 273 kts 162°
2026-05-04 14:34 50.21736 7.42477 7133 ft 270 kts 158°
2026-05-04 14:34 50.20090 7.43853 6261 ft 265 kts 154°
2026-05-04 14:34 50.18528 7.45313 5501 ft 255 kts 153°
2026-05-04 14:35 50.17000 7.46296 5209 ft 226 kts 177°
2026-05-04 14:35 50.15508 7.45912 5050 ft 212 kts 203°
2026-05-04 14:35 50.14200 7.45004 5018 ft 197 kts 205°
2026-05-04 14:35 50.13004 7.44137 4970 ft 183 kts 207°
2026-05-04 14:36 50.11937 7.43237 4965 ft 168 kts 211°
2026-05-04 14:36 50.10931 7.42289 4972 ft 164 kts 212°
2026-05-04 14:36 50.10025 7.41405 4933 ft 148 kts 213°
2026-05-04 14:36 50.09178 7.40570 4759 ft 142 kts 213°
2026-05-04 14:37 50.08374 7.39770 4578 ft 131 kts 213°
2026-05-04 14:37 50.07604 7.39007 4385 ft 129 kts 213°
2026-05-04 14:37 50.06858 7.38262 4239 ft 129 kts 213°
2026-05-04 14:37 50.06096 7.37510 4043 ft 130 kts 213°
2026-05-04 14:38 50.05340 7.36758 3889 ft 130 kts 213°
2026-05-04 14:38 50.04578 7.36000 3704 ft 130 kts 213°
2026-05-04 14:38 50.03812 7.35241 3526 ft 133 kts 214°
2026-05-04 14:38 50.03014 7.34450 3365 ft 136 kts 214°
2026-05-04 14:39 50.02226 7.33667 3173 ft 132 kts 214°
2026-05-04 14:39 50.01452 7.32900 2997 ft 133 kts 213°
2026-05-04 14:39 50.00670 7.32125 2816 ft 133 kts 213°
2026-05-04 14:40 49.99123 7.30596 2447 ft 134 kts 212°
2026-05-04 14:40 49.98330 7.29807 2283 ft 135 kts 214°
2026-05-04 14:40 49.97545 7.29034 2153 ft 134 kts 213°
2026-05-04 14:40 49.96749 7.28233 1899 ft 136 kts 213°
2026-05-04 14:41 49.95942 7.27452 1683 ft 135 kts 217°
2026-05-04 14:41 49.95185 7.26700 1621 ft 119 kts 208°
2026-05-04 14:41 49.94144 7.25669 1638 ft 45 kts 213°
2026-05-04 14:42 49.93892 7.25682 1638 ft 4 kts 110°
2026-05-04 14:42 49.93864 7.25726 1638 ft 13 kts 134°
2026-05-04 14:42 49.93833 7.25791 1638 ft 0 kts 123°
2026-05-04 14:43 49.93824 7.25819 1638 ft 9 kts 110°
2026-05-04 14:43 49.93854 7.25910 1637 ft 10 kts 38°
2026-05-04 14:44 49.93923 7.25984 1640 ft 14 kts 34°
2026-05-04 14:44 49.94004 7.26066 1639 ft 14 kts 33°
2026-05-04 14:44 49.94085 7.26148 1633 ft 14 kts 34°
2026-05-04 14:44 49.94165 7.26231 1636 ft 14 kts 33°
2026-05-04 14:45 49.94246 7.26313 1634 ft 14 kts 33°
2026-05-04 14:45 49.94327 7.26395 1632 ft 14 kts 33°
2026-05-04 14:45 49.94384 7.26456 1633 ft 9 kts 35°
2026-05-04 14:45 49.94460 7.26535 1631 ft 14 kts 33°
2026-05-04 14:46 49.94515 7.26591 1631 ft 14 kts 33°
2026-05-04 14:46 49.94637 7.26643 1628 ft 14 kts 12°
2026-05-04 14:46 49.94695 7.26694 1630 ft 14 kts 31°
2026-05-04 14:46 49.94778 7.26775 1628 ft 14 kts 33°
2026-05-04 14:47 49.94852 7.26851 1626 ft 14 kts 33°
2026-05-04 14:47 49.94960 7.26959 1625 ft 14 kts 33°
2026-05-04 14:47 49.95016 7.27013 1624 ft 14 kts 32°
2026-05-04 14:47 49.95099 7.27093 1621 ft 14 kts 32°
2026-05-04 14:48 49.95183 7.27174 1621 ft 14 kts 33°
2026-05-04 14:48 49.95265 7.27259 1617 ft 13 kts 33°
2026-05-04 14:48 49.95310 7.27343 1618 ft 9 kts 101°
2026-05-04 14:48 49.95272 7.27426 1611 ft 8 kts 123°
2026-05-04 14:49 49.95263 7.27449 1614 ft 0 kts 123°